DW1345 Weather Reports


time (UTC)temp
F
wind
direction
speed
knots
gust
knots
rain 1hr
in
rain 24hr
in
rain mn
in
humidity
%
barometer
mb
20260904034526 49 67 0.9 0.0 0.00 0.00 0.01 96 999.7
20260904033022 49 68 0.9 0.0 0.00 0.00 0.01 96 999.8
20260904031522 48 59 0.9 0.0 0.00 0.00 0.01 96 999.9
20260904030021 48 85 0.0 0.0 0.00 0.00 0.01 95 1000.0
20260904024520 49 120 1.7 0.0 0.00 0.00 0.01 96 1000.0
20260904023026 47 70 0.0 0.0 0.00 0.00 0.01 95 1000.3
20260904021532 48 70 0.0 0.0 0.00 0.00 0.01 95 1000.1
20260904020018 49 71 0.0 0.0 0.00 0.00 0.01 95 1000.2
20260904014517 50 80 0.0 0.0 0.00 0.00 0.01 95 1000.1
20260904013014 49 93 0.0 0.0 0.00 0.00 0.01 96 1000.2
20260904011520 48 144 0.0 0.0 0.00 0.00 0.00 95 1000.2
20260904010008 47 185 0.0 0.0 0.00 0.00 0.00 95 1000.3
20260904004512 47 186 0.0 0.0 0.00 0.00 0.00 95 1000.4
20260904003005 46 190 0.0 0.0 0.00 0.00 0.00 95 1000.4
20260904001505 46 190 0.0 0.0 0.00 0.00 0.00 95 1000.7
20260904000002 45 190 0.0 0.0 0.00 0.00 0.00 94 1000.8
20260903234502 45 190 0.0 0.0 0.00 0.00 0.00 94 1000.6
20260903233100 45 190 0.0 0.0 0.00 0.00 0.00 94 1000.7
20260903231618 45 190 0.0 0.0 0.00 0.00 0.00 94 1000.7
20260903230104 45 191 0.0 0.0 0.00 0.00 0.00 93 1000.7
20260903224557 46 191 0.0 0.0 0.00 0.00 0.00 93 1000.6
20260903223053 46 191 0.0 0.0 0.00 0.00 0.00 93 1000.8
20260903221553 46 191 0.0 0.0 0.00 0.00 0.00 93 1000.6
20260903220106 47 192 0.0 0.0 0.00 0.00 0.00 93 1000.7
20260903214553 47 192 0.0 0.0 0.00 0.00 0.00 93 1000.7
20260903213051 47 192 0.0 0.0 0.00 0.00 0.00 93 1000.5
20260903211547 48 192 0.0 0.0 0.00 0.00 0.00 93 1000.6
20260903210050 48 192 0.0 0.0 0.00 0.00 0.00 92 1000.7
20260903204547 48 192 0.0 0.0 0.00 0.00 0.00 92 1000.8
20260903203046 49 192 0.0 0.0 0.00 0.00 0.00 92 1000.7
20260903201546 49 192 0.0 0.0 0.00 0.00 0.00 92 1000.7
20260903200046 50 192 0.0 0.0 0.00 0.00 0.00 91 1000.8
20260903194551 51 192 0.0 0.0 0.00 0.00 0.00 91 1000.8
20260903193051 51 192 0.0 0.0 0.00 0.00 0.00 90 1001.0
20260903191547 52 192 0.0 0.0 0.00 0.00 0.00 90 1000.8
20260903190055 53 192 0.0 0.0 0.00 0.00 0.00 89 1000.8
20260903184543 53 192 0.0 0.0 0.00 0.00 0.00 87 1000.6
20260903183042 55 192 0.0 0.0 0.00 0.00 0.00 86 1000.7
20260903181546 56 192 0.0 0.0 0.00 0.00 0.00 86 1000.7
20260903180047 56 192 0.0 0.0 0.00 0.00 0.00 85 1000.6
20260903174539 57 192 0.0 0.0 0.00 0.00 0.00 85 1000.5
20260903173046 57 192 0.0 0.0 0.00 0.00 0.00 85 1000.4
20260903171541 57 192 0.0 0.0 0.00 0.00 0.00 84 1000.5
20260903170052 57 192 0.0 0.0 0.00 0.00 0.00 82 1000.5
20260903164539 58 192 0.0 0.0 0.00 0.00 0.00 82 1000.3
20260903163050 58 192 0.0 0.0 0.00 0.00 0.00 82 1000.4
20260903161537 58 192 0.0 0.0 0.00 0.00 0.00 81 1000.3
20260903160036 58 192 0.0 0.0 0.00 0.00 0.00 81 1000.3
20260903154535 59 192 0.0 0.0 0.00 0.00 0.00 78 1000.3
20260903153035 60 191 0.0 0.0 0.00 0.00 0.00 78 1000.4
20260903151633 59 196 0.0 0.0 0.00 0.00 0.00 78 1000.4
20260903150046 59 194 0.0 0.0 0.00 0.00 0.00 78 1000.5
20260903144534 60 194 0.0 0.0 0.00 0.00 0.00 77 1000.4
20260903143036 59 217 0.0 0.0 0.00 0.00 0.00 77 1000.4
20260903141534 58 218 0.0 0.0 0.00 0.00 0.00 77 1000.4
20260903140029 58 217 0.0 0.0 0.00 0.00 0.00 79 1000.4
20260903134528 58 218 0.0 0.0 0.00 0.00 0.00 78 1000.4
20260903133029 57 223 0.0 0.0 0.00 0.00 0.00 80 1000.5
20260903131527 58 217 0.0 0.0 0.00 0.00 0.00 78 1000.6
20260903130026 58 186 0.0 0.0 0.00 0.00 0.00 79 1000.5
20260903124526 58 134 0.0 0.0 0.00 0.00 0.00 77 1000.4
20260903123028 60 128 0.0 0.0 0.00 0.00 0.00 76 1000.4
20260903121521 59 128 0.0 0.0 0.00 0.00 0.00 79 1000.3
20260903120020 58 128 0.0 0.0 0.00 0.00 0.00 80 1000.3
20260903114520 57 126 0.0 0.0 0.00 0.00 0.00 82 1000.3
20260903113018 57 126 0.0 0.0 0.00 0.00 0.00 81 1000.5
20260903111516 57 117 0.0 0.0 0.00 0.00 0.00 80 1000.4
20260903110014 57 116 0.0 0.0 0.00 0.00 0.00 80 1000.3
20260903104513 57 116 0.0 0.0 0.00 0.00 0.00 79 1000.4
20260903103012 57 116 1.7 0.0 0.00 0.00 0.00 78 1000.3
20260903101510 58 121 0.9 0.0 0.00 0.00 0.00 78 1000.2
20260903100018 59 120 0.0 0.0 0.00 0.00 0.00 80 1000.1
20260903094505 58 120 0.0 0.0 0.00 0.00 0.00 81 1000.0
20260903093002 58 119 0.0 0.0 0.00 0.00 0.00 84 1000.1
20260903091558 56 119 0.0 0.0 0.00 0.00 0.00 87 1000.0
20260903090056 55 119 0.0 0.0 0.00 0.00 0.00 89 1000.2
20260903084552 53 117 0.9 0.0 0.00 0.00 0.00 92 1000.0
20260903083055 53 67 0.0 0.0 0.00 0.00 0.00 93 1000.2
20260903081549 52 69 0.9 0.0 0.00 0.00 0.00 94 1000.1
20260903080047 52 77 1.7 0.0 0.00 0.00 0.00 93 1000.3
20260903074550 52 64 0.9 0.0 0.00 0.00 0.00 93 1000.3
20260903073049 52 155 0.0 0.0 0.00 0.00 0.00 94 1000.2
20260903071605 52 155 0.0 0.0 0.00 0.00 0.00 94 1000.2
20260903070059 52 155 0.0 0.0 0.00 0.00 0.00 94 1000.0
20260903064544 52 155 0.0 0.0 0.00 0.00 0.00 94 1000.0
20260903063044 52 173 0.0 0.0 0.00 0.00 0.00 96 999.9
20260903061543 51 174 0.0 0.0 0.00 0.00 0.00 96 1000.0
20260903060039 50 180 0.0 0.0 0.00 0.00 0.00 96 999.9
20260903054543 49 180 0.0 0.0 0.00 0.00 0.00 96 999.9
20260903053034 48 182 0.0 0.0 0.00 0.00 0.00 96 999.9
20260903051530 48 184 0.0 0.0 0.00 0.00 0.00 96 999.9
20260903050034 47 184 0.0 0.0 0.00 0.00 0.00 96 999.8
20260903044526 47 184 0.0 0.0 0.00 0.00 0.00 96 999.8
20260903043027 46 184 0.0 0.0 0.00 0.00 0.00 95 999.7
20260903041524 46 184 0.0 0.0 0.00 0.00 0.00 95 999.8
20260903040024 46 184 0.0 0.0 0.00 0.00 0.00 95 999.8